This is the latest recevied weather packets stored in our database for station/object DG6YGE-6. If no packets are shown the sender has not sent any weather packets the latest 10 day(s).
| Time | Temp. | Humidity | Pressure | Rain* | Wind** | Luminosity | Snow |
|---|---|---|---|---|---|---|---|
| 1788028751 | 20° C | 75% | 1008.5 hPa | 0 mm | - | 0 W/m² | - |
| 1788028151 | 20° C | 75% | 1008.5 hPa | 0 mm | - | 7 W/m² | - |
| 1788027551 | 20° C | 74% | 1008.5 hPa | 0 mm | - | 0 W/m² | - |
| 1788026951 | 20° C | 74% | 1008.6 hPa | 0 mm | - | 25 W/m² | - |
| 1788026351 | 20.56° C | 73% | 1008.7 hPa | 0 mm | - | 24 W/m² | - |
| 1788025751 | 20.56° C | 72% | 1008.7 hPa | 0 mm | - | 16 W/m² | - |
| 1788025151 | 20.56° C | 71% | 1008.7 hPa | 0 mm | - | 22 W/m² | - |
| 1788024551 | 21.11° C | 70% | 1008.7 hPa | 0 mm | - | 12 W/m² | - |
| 1788023951 | 21.67° C | 66% | 1008.7 hPa | 0 mm | - | 15 W/m² | - |
| 1788023351 | 22.22° C | 65% | 1008.6 hPa | 0 mm | - | 16 W/m² | - |
| 1788022751 | 22.22° C | 63% | 1008.5 hPa | 0 mm | - | 25 W/m² | - |
| 1788022151 | 22.78° C | 62% | 1008.4 hPa | 0 mm | - | 20 W/m² | - |
| 1788021551 | 22.78° C | 62% | 1008.4 hPa | 0 mm | - | 44 W/m² | - |
| 1788020951 | 22.78° C | 61% | 1008.6 hPa | 0 mm | - | 56 W/m² | - |
| 1788020351 | 22.78° C | 60% | 1008.6 hPa | 0 mm | - | 53 W/m² | - |
| 1788019751 | 22.78° C | 60% | 1008.6 hPa | 0 mm | - | 85 W/m² | - |
| 1788019151 | 23.33° C | 60% | 1008.7 hPa | 0 mm | - | 74 W/m² | - |
| 1788018551 | 23.33° C | 59% | 1008.6 hPa | 0 mm | - | 143 W/m² | - |
| 1788017951 | 23.33° C | 60% | 1008.8 hPa | 0 mm | - | 401 W/m² | - |
| 1788017351 | 23.33° C | 59% | 1008.8 hPa | 0 mm | - | 165 W/m² | - |
| 1788016751 | 23.33° C | 60% | 1009 hPa | 0 mm | - | 407 W/m² | - |
| 1788016151 | 23.33° C | 59% | 1009.1 hPa | 0 mm | - | 339 W/m² | - |
| 1788015551 | 23.89° C | 59% | 1009.2 hPa | 0 mm | - | 255 W/m² | - |
| 1788014951 | 23.33° C | 58% | 1009.3 hPa | 0 mm | - | 432 W/m² | - |
| 1788014350 | 23.89° C | 58% | 1009.3 hPa | 0 mm | - | 199 W/m² | - |
* Rain latest hour (hover to see other rain measurements)
** Current wind speed in m/s (hover to see current wind gust speed)